[[{"header":{"parameterUnit":"m.s-1","parameterCategory":1,"la1":30.2991,"la2":30.254,"lo1":-89.0895,"lo2":-89.0444,"dy":0.0017,"dx":0.0017,"nx":28,"ny":28,"refTime":"2024-08-27T03:00:00:Z","depth":0,"parameterNumber":2,"parameterNumberName":"U-component_of_WINDS"},"data":[0,0,0,0,0,0,0,0,0,0,0,0,0,0,0,0,0,0,0,0,0,0,0,0,0,0,0,0,0,0,0,0,0,0,0,0,0,0,0,0,0,0,0,0,0,0,0,0,0,0,0,0,0,0,0,0,0,0,-3.2823,-3.2823,0,-3.2825,-3.2825,-3.2825,-3.2785,-3.2784,-3.2783,-3.2782,-3.2784,-3.2785,-3.2786,0,0,0,0,0,0,0,0,0,0,0,0,0,-3.2789,-3.279,-3.2823,-3.2823,-3.2823,-3.2825,-3.2825,-3.2825,-3.2785,-3.2784,-3.2782,-3.2781,-3.2783,-3.2784,-3.2786,0,0,0,0,0,0,0,0,0,0,0,0,0,-3.2798,-3.279,-3.2823,-3.2804,-3.2802,-3.2825,-3.2825,-3.2825,-3.2785,-3.2784,-3.2782,-3.2781,-3.2783,-3.2784,-3.2786,-3.2827,0,0,-3.2791,-3.2791,0,0,0,0,0,0,0,0,-3.2798,-3.28,-3.2807,-3.2805,-3.2803,-3.2803,-3.2813,-3.2826,-3.2786,-3.2792,-3.2782,-3.278,-3.2791,-3.2792,-3.2796,-3.2827,-3.2828,-3.2791,-3.2792,-3.2792,-3.2793,0,0,0,0,0,0,0,-3.2797,-3.2799,-3.2824,-3.2807,-3.2805,-3.2796,-3.2795,-3.2815,-3.28,-3.2791,-3.2788,-3.2789,-3.279,-3.2794,-3.2796,-3.2828,-3.2791,-3.2792,-3.2793,-3.2794,-3.2894,-3.2896,0,0,0,0,0,0,-3.2799,-3.2799,-3.2824,-3.2824,-3.2797,-3.2798,-3.2797,-3.2805,-3.28,-3.2798,-3.279,-3.2787,-3.2793,-3.2794,-3.2796,-3.2844,-3.2792,-3.2794,-3.2795,-3.2893,-3.2895,-3.2896,0,0,0,0,0,0,-3.2799,-3.2802,-3.2824,-3.2811,-3.2813,-3.28,-3.2809,-3.2805,-3.281,-3.2799,-3.2797,-3.2797,-3.2791,-3.2793,-3.282,-3.2843,-3.2795,-3.2796,-3.289,-3.2893,-3.2896,-3.294,0,0,0,0,0,0,-3.2798,-3.2802,-3.2817,-3.2811,-3.2814,-3.2848,-3.281,-3.2807,-3.2812,-3.2808,-3.2805,-3.2803,-3.279,-3.2818,-3.2821,-3.2844,-3.2797,-3.2888,-3.2892,-3.2895,-3.2937,-3.2944,-3.2951,0,0,0,0,0,-3.2797,-3.2829,-3.2818,-3.2821,-3.2832,-3.2849,-3.285,-3.2834,-3.2814,-3.283,-3.2823,-3.2803,-3.2841,-3.2821,-3.2825,-3.2848,-3.2887,-3.2891,-3.2894,-3.2934,-3.2943,-3.295,0,0,0,0,0,0,-3.2838,-3.2828,-3.2815,-3.2847,-3.2849,-3.2842,-3.2861,-3.2845,-3.2852,-3.2848,-3.2829,-3.2828,-3.2858,-3.2856,-3.2834,-3.2889,-3.286,-3.2865,-3.2889,-3.2897,-3.2904,-3.2903,-3.2799,0,0,0,0,0,-3.285,-3.2864,-3.2856,-3.2885,-3.2887,-3.2874,-3.2881,-3.2868,-3.287,-3.287,-3.2866,-3.2869,-3.2881,-3.2889,-3.29,-3.2937,-3.2936,-3.2956,-3.2963,-3.2968,-3.2972,-3.2992,-3.3001,-3.2909,-3.2909,-3.2909,0,0,-3.2877,-3.2873,-3.2883,-3.2893,-3.2893,-3.2908,-3.2875,-3.2892,-3.2904,-3.2873,-3.2897,-3.2895,-3.2897,-3.2929,-3.2943,-3.2928,-3.2998,-3.2973,-3.2978,-3.2979,-3.2997,-3.3006,-3.3013,-3.2912,-3.2911,-3.2911,0,0,-3.2932,-3.2931,-3.2955,-3.2957,-3.2958,-3.2949,-3.2955,-3.2951,-3.2948,-3.2973,-3.295,-3.2964,-3.2986,-3.2988,-3.2992,-3.3051,-3.3032,-3.3055,-3.309,-3.311,-3.3117,-3.3123,-3.3144,-3.3152,-3.3059,-3.3059,-3.3059,0,-3.2965,-3.2987,-3.297,-3.2989,-3.2994,-3.2968,-3.2993,-3.2995,-3.3,-3.3004,-3.2988,-3.3015,-3.3014,-3.3046,-3.3061,-3.3065,-3.3072,-3.3054,-3.3117,-3.3124,-3.3129,-3.3148,-3.3156,-3.3062,-3.3062,-3.3061,-3.3061,0,-3.3027,-3.3042,-3.3062,-3.3067,-3.3074,-3.3096,-3.3084,-3.3094,-3.3082,-3.3075,-3.3101,-3.31,-3.311,-3.3117,-3.3105,-3.3148,-3.3139,-3.3121,-3.3091,-3.3141,-3.3159,-3.3166,-3.3066,-3.3065,-3.3064,-3.3063,0,0,-3.3106,-3.3103,-3.311,-3.3112,-3.3112,-3.3124,-3.3146,-3.3156,-3.3164,-3.3169,-3.3187,-3.3207,-3.319,-3.3194,-3.3183,-3.3201,-3.3247,-3.318,-3.318,-3.3192,-3.3294,-3.3307,-3.3316,-3.3236,-3.3237,-3.3238,-3.3294,0,-3.3159,-3.3194,-3.3181,-3.3218,-3.3232,-3.3209,-3.3228,-3.323,-3.3226,-3.3238,-3.3233,-3.3247,-3.3224,-3.3226,-3.3243,-3.3238,-3.3267,-3.3234,-3.3252,-3.3253,-3.325,-3.3325,-3.3339,-3.3391,-3.3301,-3.3302,-3.3303,0,-3.3225,-3.3233,-3.3271,-3.3269,-3.3275,-3.3292,-3.33,-3.3313,-3.3315,-3.3311,-3.3317,-3.3302,-3.3324,-3.3296,-3.3326,-3.3304,-3.3311,-3.331,-3.3311,-3.3311,-3.3279,-3.3326,-3.3407,-3.3415,-3.3314,-3.3313,-3.3312,0,-3.3279,-3.3299,-3.3324,-3.3327,-3.3326,-3.3338,-3.3338,-3.334,-3.3347,-3.3355,-3.3359,-3.337,-3.3376,-3.3385,-3.3374,-3.3354,-3.3405,-3.3376,-3.3402,-3.3402,-3.3412,-3.3411,-3.3494,-3.3419,-3.3419,-3.3419,-3.3419,0,-3.3339,-3.3363,-3.3348,-3.3363,-3.339,-3.3375,-3.3402,-3.34,-3.3402,-3.3417,-3.3398,-3.3413,-3.3398,-3.3412,-3.3404,-3.3429,-3.3432,-3.3429,-3.3427,-3.343,-3.3431,-3.3433,-3.3429,-3.3421,-3.342,-3.342,-3.342,0,-3.3402,-3.3393,-3.3419,-3.3416,-3.3416,-3.3436,-3.3434,-3.3448,-3.3443,-3.3463,-3.3466,-3.3458,-3.3473,-3.3464,-3.3479,-3.3474,-3.3507,-3.35,-3.3506,-3.3504,-3.353,-3.3527,-3.3616,-3.3627,-3.3546,-3.3547,-3.3547,0,-3.344,-3.3458,-3.3458,-3.3466,-3.3468,-3.3482,-3.349,-3.3477,-3.3485,-3.3491,-3.3505,-3.3519,-3.3528,-3.3554,-3.355,-3.3562,-3.3554,-3.3585,-3.3556,-3.3559,-3.3554,-3.3552,-3.3554,-3.359,-3.3591,-3.3592,-3.3592,0,-3.3509,-3.3504,-3.3515,-3.3525,-3.3535,-3.3542,-3.3548,-3.3557,-3.3544,-3.3554,-3.357,-3.3578,-3.3594,-3.3608,-3.3618,-3.3619,-3.3604,-3.3602,-3.3608,-3.3612,-3.3614,-3.3612,-3.3521,-3.36,-3.3599,-3.3598,-3.3598,-3.3598,-3.3561,-3.3576,-3.3578,-3.3591,-3.3594,-3.3601,-3.3614,-3.3611,-3.3623,-3.3635,-3.3627,-3.3645,-3.3649,-3.3662,-3.3665,-3.3679,-3.3667,-3.3676,-3.3678,-3.3681,-3.3684,-3.3613,-3.3681,-3.3681,-3.3681,-3.368,-3.368,0,-3.3628,-3.3629,-3.3641,-3.365,-3.3661,-3.3646,-3.3652,-3.3662,-3.3678,-3.3683,-3.3694,-3.3712,-3.3726,-3.3723,-3.3736,-3.3748,-3.3741,-3.3751,-3.375,-3.375,-3.3694,-3.3687,-3.3756,-3.3756,-3.3756,-3.3756,-3.3756,-3.3756,-3.3664,-3.3689,-3.3684,-3.3711,-3.3711,-3.3729,-3.3734,-3.374,-3.3743,-3.3764,-3.3775,-3.3774,-3.3776,-3.3788,-3.3801,-3.38,-3.3805,-3.3818,-3.3814,-3.3762,-3.3754,-3.3747,-3.374,-3.3819,-3.3819,-3.3868,-3.3869,-3.3869]},{"header":{"parameterUnit":"m.s-1","parameterCategory":1,"la1":30.2991,"la2":30.254,"lo1":-89.0895,"lo2":-89.0444,"dy":0.0017,"dx":0.0017,"nx":28,"ny":28,"refTime":"2024-08-27T03:00:00:Z","depth":0,"parameterNumber":3,"parameterNumberName":"V-component_of_WINDS"},"data":[0,0,0,0,0,0,0,0,0,0,0,0,0,0,0,0,0,0,0,0,0,0,0,0,0,0,0,0,0,0,0,0,0,0,0,0,0,0,0,0,0,0,0,0,0,0,0,0,0,0,0,0,0,0,0,0,0,0,4.2635,4.2636,0,4.2662,4.2662,4.2663,4.2669,4.2668,4.2668,4.2668,4.2693,4.2694,4.2695,0,0,0,0,0,0,0,0,0,0,0,0,0,4.2588,4.2589,4.2635,4.2636,4.2636,4.2662,4.2662,4.2663,4.2669,4.2668,4.2668,4.2668,4.2693,4.2694,4.2695,0,0,0,0,0,0,0,0,0,0,0,0,0,4.2611,4.2589,4.2635,4.2642,4.2643,4.2662,4.2662,4.2663,4.2669,4.2668,4.2668,4.2668,4.2692,4.2694,4.2695,4.2708,0,0,4.2699,4.2699,0,0,0,0,0,0,0,0,4.261,4.2613,4.2641,4.2642,4.2643,4.2662,4.2655,4.2678,4.2669,4.2659,4.2668,4.2668,4.2683,4.2685,4.269,4.2709,4.271,4.2699,4.2699,4.27,4.27,0,0,0,0,0,0,0,4.2608,4.2611,4.2646,4.2641,4.2642,4.2643,4.2646,4.2659,4.2672,4.266,4.266,4.2663,4.2683,4.2689,4.2691,4.271,4.2699,4.27,4.2701,4.2701,4.2742,4.2742,0,0,0,0,0,0,4.2605,4.261,4.2645,4.2647,4.2625,4.2644,4.2648,4.2656,4.2672,4.2674,4.2664,4.2664,4.2687,4.2689,4.2692,4.2708,4.27,4.2701,4.2702,4.2742,4.2742,4.2742,0,0,0,0,0,0,4.2604,4.2608,4.2644,4.2629,4.2633,4.2646,4.2655,4.2657,4.2662,4.2675,4.2677,4.2667,4.2687,4.269,4.2704,4.2709,4.2702,4.2703,4.2741,4.2742,4.2742,4.2742,0,0,0,0,0,0,4.2603,4.2608,4.2613,4.2629,4.2634,4.2656,4.2655,4.2657,4.2665,4.2665,4.2679,4.2681,4.2687,4.2702,4.2705,4.2711,4.2704,4.2741,4.2741,4.2742,4.2741,4.2742,4.2743,0,0,0,0,0,4.2601,4.2612,4.2614,4.2618,4.2641,4.2657,4.266,4.2667,4.2665,4.2671,4.2679,4.268,4.2708,4.2704,4.2707,4.2713,4.2741,4.2741,4.2742,4.2741,4.2742,4.2743,0,0,0,0,0,0,4.2595,4.2614,4.2616,4.2632,4.2643,4.2658,4.2665,4.2668,4.2679,4.2678,4.2686,4.2689,4.2703,4.271,4.2704,4.2727,4.2724,4.2726,4.2722,4.2723,4.2724,4.2722,4.2705,0,0,0,0,0,4.2596,4.2608,4.2623,4.2635,4.2641,4.2652,4.2659,4.2664,4.2675,4.2679,4.2688,4.2699,4.271,4.2717,4.2728,4.2742,4.2745,4.2748,4.2749,4.275,4.2751,4.2759,4.2761,4.2745,4.2745,4.2745,0,0,4.2597,4.2609,4.2616,4.2634,4.2644,4.2655,4.2656,4.2668,4.2676,4.2681,4.2695,4.2702,4.2714,4.2729,4.2736,4.2735,4.2756,4.2751,4.2751,4.2752,4.276,4.2762,4.2763,4.2745,4.2745,4.2745,0,0,4.2606,4.2616,4.2627,4.2637,4.2651,4.2658,4.2661,4.2676,4.2681,4.2696,4.27,4.271,4.2729,4.2737,4.2744,4.2757,4.2759,4.276,4.2764,4.2772,4.2773,4.2775,4.2779,4.2781,4.2761,4.2761,4.2761,0,4.2605,4.2623,4.2632,4.2645,4.2653,4.2659,4.2671,4.2679,4.2696,4.2701,4.27,4.2725,4.2733,4.275,4.2753,4.2759,4.2762,4.2758,4.2773,4.2774,4.2775,4.278,4.2781,4.2762,4.2762,4.2761,4.2761,0,4.2622,4.2635,4.2642,4.266,4.2669,4.2681,4.2691,4.2699,4.2704,4.2711,4.2726,4.2737,4.275,4.2755,4.2758,4.2772,4.2771,4.2771,4.2769,4.2777,4.2781,4.2783,4.2762,4.2762,4.2762,4.2762,0,0,4.2626,4.265,4.2652,4.2661,4.2677,4.2687,4.2699,4.2713,4.272,4.2731,4.2742,4.2758,4.2759,4.2767,4.2772,4.2779,4.2788,4.2778,4.2779,4.278,4.2804,4.2804,4.2806,4.279,4.2791,4.2791,4.2803,0,4.2637,4.266,4.2669,4.2687,4.2699,4.2706,4.2716,4.2727,4.2735,4.2746,4.2753,4.2765,4.2765,4.277,4.2777,4.2786,4.2793,4.2785,4.2799,4.28,4.2796,4.2808,4.2807,4.2818,4.2805,4.2805,4.2805,0,4.2652,4.2665,4.2684,4.2701,4.2706,4.2715,4.2729,4.274,4.2752,4.2757,4.2767,4.2772,4.2784,4.2781,4.2799,4.2793,4.2799,4.2804,4.2805,4.2806,4.2803,4.2809,4.2822,4.2824,4.2808,4.2808,4.2808,0,4.2653,4.2675,4.269,4.2697,4.2716,4.2723,4.2731,4.2743,4.2751,4.2764,4.2769,4.2782,4.2789,4.2799,4.2807,4.2804,4.2824,4.2821,4.2828,4.2827,4.2831,4.283,4.2845,4.2835,4.2835,4.2835,4.2835,0,4.2663,4.2675,4.2691,4.27,4.2714,4.2724,4.2737,4.2746,4.2757,4.2767,4.2774,4.2783,4.2794,4.2804,4.2811,4.2824,4.2827,4.2831,4.2833,4.2831,4.283,4.2835,4.2834,4.2836,4.2836,4.2836,4.2836,0,4.2667,4.2678,4.2695,4.2712,4.2717,4.2726,4.274,4.2749,4.2757,4.2771,4.2774,4.2787,4.28,4.2809,4.2826,4.283,4.2845,4.2846,4.2841,4.2841,4.2847,4.2846,4.2865,4.2867,4.2856,4.2856,4.2857,0,4.2673,4.2682,4.2701,4.2709,4.2717,4.273,4.2739,4.2749,4.2758,4.2774,4.2781,4.2795,4.2806,4.2827,4.2837,4.285,4.2851,4.2857,4.2853,4.2851,4.2851,4.2851,4.2852,4.2857,4.2857,4.2857,4.2857,0,4.2682,4.2687,4.27,4.2716,4.2726,4.2738,4.275,4.2756,4.2769,4.2778,4.2792,4.2801,4.2819,4.2833,4.2847,4.2854,4.2858,4.2859,4.2861,4.2858,4.2855,4.2857,4.2842,4.2858,4.2858,4.2858,4.2858,4.2858,4.2687,4.2696,4.2711,4.2725,4.2736,4.2747,4.2756,4.2766,4.2779,4.2795,4.28,4.2814,4.2827,4.2846,4.2854,4.2865,4.2865,4.2868,4.2869,4.2869,4.2869,4.2854,4.2868,4.2868,4.2868,4.2868,4.2868,0,4.2697,4.2707,4.272,4.2737,4.2749,4.2752,4.2766,4.2775,4.2788,4.28,4.2812,4.2828,4.2841,4.2853,4.2867,4.2873,4.2875,4.2877,4.2876,4.2878,4.2869,4.2866,4.2875,4.2875,4.2875,4.2875,4.2875,4.2875,4.2703,4.2719,4.2726,4.2747,4.2756,4.2772,4.2779,4.279,4.2799,4.2818,4.2829,4.2837,4.2849,4.2864,4.2876,4.2879,4.2884,4.2884,4.2888,4.2879,4.2878,4.2877,4.2874,4.2885,4.2885,4.2896,4.2896,4.2896]}]]